Location: Brachstadt
(48.6975°N, 10.6755°E)
Time: 05:03:11
(UTC+00:00)

SL-08 RB Rocket - Pass Details

Date: 18 September 2020
Orbit: 647 x 684 km, 97.8° (Epoch: 29 October)

Event Time Altitude Azimuth Distance (km) Brightness Sun altitude
Exits shadow 17:54:33 -1° 139° (SE) 3,080 6.7 -6.0°
Rises 17:54:42 0° 139° (SE) 3,019 6.6 -6.0°
Reaches altitude 10° 17:57:06 10° 130° (SE) 2,103 5.8 -6.4°
Maximum altitude 18:01:12 33° 67° (ENE) 1,123 4.5 -7.1°
Drops below altitude 10° 18:05:17 10° 3° (N) 2,096 6.4 -7.8°
Sets 18:07:40 0° 355° (N) 3,007 7.3 -8.1°
